• In Hungary
  • List of Countries
  • For 7 days
  • Water Temperature
  • Satellite Maps
  • Weather Map
  • News
  • Weather Widgets
  • user-avatar
    Login

    Hourly Weather Río Gallegos

    Today, 16 January, Tuesday

    Time Temperature Precipitation Wind Pressure Humidity
    00:00 +14°C° 0.1 mm 4 mps 748 mmHg 56%
    01:00 +13°C° 0 mm 3 mps 747 mmHg 59%
    02:00 +13°C° 0.1 mm 3 mps 747 mmHg 58%
    03:00 +13°C° 0.1 mm 3 mps 746 mmHg 58%
    04:00 +13°C° 0.1 mm 4 mps 746 mmHg 58%
    05:00 +14°C° 0 mm 6 mps 746 mmHg 55%
    06:00 +13°C° 0 mm 8 mps 746 mmHg 52%
    07:00 +14°C° 0 mm 10 mps 745 mmHg 48%
    08:00 +14°C° 0 mm 11 mps 746 mmHg 48%
    09:00 +14°C° 0 mm 11 mps 746 mmHg 48%
    10:00 +14°C° 0 mm 12 mps 746 mmHg 48%
    11:00 +14°C° 0 mm 12 mps 746 mmHg 45%
    12:00 +15°C° 0 mm 13 mps 746 mmHg 42%
    13:00 +15°C° 0 mm 13 mps 746 mmHg 38%
    14:00 +15°C° 0.1 mm 13 mps 747 mmHg 40%
    15:00 +15°C° 0.1 mm 13 mps 748 mmHg 42%
    16:00 +14°C° 0.1 mm 13 mps 748 mmHg 43%
    17:00 +13°C° 0 mm 13 mps 749 mmHg 46%
    18:00 +12°C° 0 mm 12 mps 750 mmHg 49%
    19:00 +12°C° 0 mm 12 mps 750 mmHg 52%
    20:00 +11°C° 0 mm 11 mps 751 mmHg 55%
    21:00 +9°C° 0 mm 10 mps 752 mmHg 58%
    22:00 +8°C° 0 mm 9 mps 752 mmHg 61%
    23:00 +8°C° 0 mm 9 mps 752 mmHg 61%

    Tomorrow, 17 January, Wednesday

    Time Temperature Precipitation Wind Pressure Humidity
    00:00 +9°C° 0 mm 8 mps 752 mmHg 62%
    01:00 +9°C° 0 mm 8 mps 752 mmHg 62%
    02:00 +7°C° 0.1 mm 8 mps 752 mmHg 61%
    03:00 +8°C° 0.1 mm 7 mps 752 mmHg 60%
    04:00 +8°C° 0.1 mm 7 mps 752 mmHg 59%
    05:00 +8°C° 0.8 mm 6 mps 751 mmHg 63%
    06:00 +7°C° 0.8 mm 5 mps 751 mmHg 67%
    07:00 +7°C° 0.8 mm 4 mps 750 mmHg 71%
    08:00 +7°C° 0.7 mm 5 mps 749 mmHg 70%
    09:00 +8°C° 0.7 mm 7 mps 749 mmHg 69%
    10:00 +8°C° 0.7 mm 9 mps 748 mmHg 67%
    11:00 +9°C° 0.1 mm 10 mps 747 mmHg 64%
    12:00 +12°C° 0.1 mm 11 mps 747 mmHg 61%
    13:00 +14°C° 0.1 mm 11 mps 747 mmHg 58%
    14:00 +13°C° 0.1 mm 12 mps 747 mmHg 57%
    15:00 +13°C° 0.1 mm 12 mps 748 mmHg 57%
    16:00 +13°C° 0.1 mm 13 mps 749 mmHg 56%
    17:00 +13°C° 0 mm 11 mps 750 mmHg 57%
    18:00 +12°C° 0 mm 10 mps 750 mmHg 58%
    19:00 +12°C° 0 mm 9 mps 751 mmHg 59%
    20:00 +11°C° 0 mm 7 mps 752 mmHg 63%
    21:00 +10°C° 0 mm 5 mps 752 mmHg 67%
    22:00 +11°C° 0 mm 4 mps 753 mmHg 71%
    23:00 +11°C° 0.7 mm 4 mps 752 mmHg 75%

    Day after tomorrow, 18 January, Thursday

    Time Temperature Precipitation Wind Pressure Humidity
    00:00 +10°C° 0.7 mm 4 mps 752 mmHg 80%
    01:00 +9°C° 0.7 mm 5 mps 751 mmHg 85%
    02:00 +10°C° 0.2 mm 5 mps 751 mmHg 82%
    03:00 +10°C° 0.2 mm 6 mps 751 mmHg 79%
    04:00 +11°C° 0.2 mm 7 mps 751 mmHg 76%
    05:00 +11°C° 0.2 mm 7 mps 750 mmHg 75%
    06:00 +12°C° 0.2 mm 7 mps 749 mmHg 74%
    07:00 +12°C° 0.2 mm 7 mps 749 mmHg 72%
    08:00 +14°C° 0.3 mm 7 mps 749 mmHg 69%
    09:00 +15°C° 0.3 mm 7 mps 748 mmHg 67%
    10:00 +16°C° 0.3 mm 7 mps 748 mmHg 64%
    11:00 +17°C° 0 mm 8 mps 749 mmHg 60%
    12:00 +18°C° 0 mm 9 mps 749 mmHg 57%
    13:00 +19°C° 0 mm 11 mps 749 mmHg 53%
    14:00 +19°C° 0 mm 11 mps 749 mmHg 52%
    15:00 +19°C° 0 mm 11 mps 749 mmHg 52%
    16:00 +19°C° 0 mm 12 mps 750 mmHg 51%
    17:00 +18°C° 0 mm 11 mps 750 mmHg 54%
    18:00 +17°C° 0 mm 11 mps 751 mmHg 56%
    19:00 +16°C° 0 mm 10 mps 751 mmHg 59%
    20:00 +14°C° 0 mm 10 mps 752 mmHg 61%
    21:00 +13°C° 0 mm 10 mps 752 mmHg 63%
    22:00 +12°C° 0 mm 10 mps 753 mmHg 65%
    23:00 +12°C° 0 mm 8 mps 753 mmHg 67%

    19 January, Friday

    Time Temperature Precipitation Wind Pressure Humidity
    00:00 +12°C° 0 mm 7 mps 753 mmHg 68%
    01:00 +11°C° 0 mm 6 mps 753 mmHg 69%
    02:00 +12°C° 0 mm 5 mps 752 mmHg 68%
    03:00 +12°C° 0 mm 5 mps 752 mmHg 68%
    04:00 +12°C° 0 mm 5 mps 752 mmHg 67%
    05:00 +13°C° 0 mm 5 mps 751 mmHg 65%
    06:00 +14°C° 0 mm 6 mps 751 mmHg 64%
    07:00 +15°C° 0 mm 7 mps 750 mmHg 63%
    08:00 +17°C° 0 mm 8 mps 750 mmHg 55%
    09:00 +21°C° 0 mm 9 mps 749 mmHg 46%
    10:00 +23°C° 0 mm 10 mps 748 mmHg 38%
    11:00 +23°C° 0 mm 11 mps 748 mmHg 42%
    12:00 +22°C° 0 mm 12 mps 748 mmHg 46%
    13:00 +22°C° 0 mm 13 mps 748 mmHg 50%
    14:00 +20°C° 0 mm 13 mps 748 mmHg 51%
    15:00 +19°C° 0 mm 13 mps 749 mmHg 52%
    16:00 +18°C° 0 mm 13 mps 749 mmHg 53%
    17:00 +17°C° 0 mm 13 mps 749 mmHg 56%
    18:00 +15°C° 0 mm 14 mps 750 mmHg 58%
    19:00 +14°C° 0 mm 14 mps 750 mmHg 60%
    20:00 +13°C° 0 mm 14 mps 751 mmHg 60%
    21:00 +12°C° 0 mm 14 mps 752 mmHg 60%
    22:00 +10°C° 0 mm 14 mps 753 mmHg 60%
    23:00 +9°C° 0 mm 13 mps 754 mmHg 61%

    20 January, Saturday

    Time Temperature Precipitation Wind Pressure Humidity
    00:00 +8°C° 0 mm 12 mps 754 mmHg 62%
    01:00 +8°C° 0 mm 10 mps 755 mmHg 64%
    02:00 +7°C° 0 mm 10 mps 755 mmHg 65%
    03:00 +7°C° 0 mm 9 mps 756 mmHg 66%
    04:00 +7°C° 0 mm 9 mps 756 mmHg 67%
    05:00 +8°C° 0 mm 10 mps 757 mmHg 63%
    06:00 +8°C° 0 mm 10 mps 757 mmHg 59%
    07:00 +9°C° 0 mm 11 mps 758 mmHg 55%
    08:00 +11°C° 0 mm 10 mps 758 mmHg 51%
    09:00 +12°C° 0 mm 10 mps 758 mmHg 46%
    10:00 +15°C° 0 mm 9 mps 758 mmHg 42%
    11:00 +16°C° 0 mm 9 mps 757 mmHg 38%
    12:00 +17°C° 0 mm 8 mps 757 mmHg 35%
    13:00 +18°C° 0 mm 8 mps 756 mmHg 32%
    14:00 +18°C° 0 mm 8 mps 756 mmHg 32%
    15:00 +20°C° 0 mm 8 mps 755 mmHg 33%
    16:00 +20°C° 0 mm 8 mps 755 mmHg 33%
    17:00 +18°C° 0 mm 8 mps 754 mmHg 38%
    18:00 +16°C° 0 mm 7 mps 754 mmHg 42%
    19:00 +15°C° 0 mm 6 mps 754 mmHg 47%
    20:00 +14°C° 0 mm 5 mps 753 mmHg 51%
    21:00 +14°C° 0 mm 4 mps 753 mmHg 54%
    22:00 +13°C° 0 mm 3 mps 752 mmHg 57%
    23:00 +13°C° 0 mm 3 mps 752 mmHg 57%

    21 January, Sunday

    Time Temperature Precipitation Wind Pressure Humidity
    00:00 +12°C° 0 mm 3 mps 751 mmHg 57%
    01:00 +13°C° 0 mm 2 mps 750 mmHg 57%
    02:00 +12°C° 0 mm 3 mps 750 mmHg 54%
    03:00 +12°C° 0 mm 4 mps 750 mmHg 51%
    04:00 +12°C° 0 mm 4 mps 749 mmHg 48%
    05:00 +12°C° 0 mm 7 mps 749 mmHg 45%
    06:00 +13°C° 0 mm 9 mps 750 mmHg 43%
    07:00 +14°C° 0 mm 11 mps 750 mmHg 41%
    08:00 +14°C° 0 mm 11 mps 750 mmHg 45%
    09:00 +13°C° 0 mm 11 mps 750 mmHg 49%
    10:00 +13°C° 0 mm 12 mps 750 mmHg 52%
    11:00 +14°C° 0 mm 12 mps 750 mmHg 47%
    12:00 +14°C° 0 mm 13 mps 750 mmHg 42%
    13:00 +15°C° 0 mm 13 mps 750 mmHg 37%
    14:00 +15°C° 0 mm 13 mps 750 mmHg 36%
    15:00 +15°C° 0 mm 14 mps 750 mmHg 35%
    16:00 +15°C° 0 mm 14 mps 750 mmHg 35%
    17:00 +14°C° 0 mm 14 mps 750 mmHg 37%
    18:00 +13°C° 0 mm 13 mps 751 mmHg 40%
    19:00 +12°C° 0 mm 13 mps 751 mmHg 43%
    20:00 +10°C° 0 mm 13 mps 751 mmHg 47%
    21:00 +9°C° 0 mm 12 mps 752 mmHg 51%
    22:00 +8°C° 0 mm 12 mps 752 mmHg 54%
    23:00 +8°C° 0 mm 12 mps 752 mmHg 56%
    Show more